| time (UTC) | temp F | wind direction | speed MPH | gust MPH | rain 1hr in | rain 24hr in | rain mn in | humidity % | barometer mb |
| 20260906170523 | 72 | 132 | 3.0 | 5.0 | 0.00 | 0.00 | 0.00 | 52 | 1032.6 |
| 20260906165523 | 73 | 131 | 2.0 | 5.0 | 0.00 | 0.00 | 0.00 | 51 | 1032.7 |
| 20260906164524 | 73 | 135 | 2.0 | 4.0 | 0.00 | 0.00 | 0.00 | 49 | 1032.9 |
| 20260906163622 | 74 | 135 | 2.0 | 3.0 | 0.00 | 0.00 | 0.00 | 46 | 1032.8 |
| 20260906161624 | 75 | 135 | 3.0 | 6.0 | 0.00 | 0.00 | 0.00 | 46 | 1033.0 |
| 20260906161524 | 75 | 135 | 3.0 | 4.0 | 0.00 | 0.00 | 0.00 | 46 | 1033.0 |
| 20260906160622 | 76 | 135 | 1.0 | 5.0 | 0.00 | 0.00 | 0.00 | 45 | 1032.9 |
| 20260906155623 | 76 | 131 | 3.0 | 5.0 | 0.00 | 0.00 | 0.00 | 46 | 1032.9 |
| 20260906154624 | 76 | 135 | 4.0 | 5.0 | 0.00 | 0.00 | 0.00 | 46 | 1032.9 |
| 20260906152625 | 76 | 135 | 5.0 | 7.0 | 0.00 | 0.00 | 0.00 | 46 | 1033.4 |
| 20260906151722 | 77 | 135 | 4.0 | 5.0 | 0.00 | 0.00 | 0.00 | 46 | 1033.2 |
| 20260906150725 | 76 | 135 | 4.0 | 7.0 | 0.00 | 0.00 | 0.00 | 46 | 1033.4 |
| 20260906145723 | 76 | 135 | 2.0 | 3.0 | 0.00 | 0.00 | 0.00 | 45 | 1033.7 |
| 20260906144724 | 76 | 134 | 3.0 | 4.0 | 0.00 | 0.00 | 0.00 | 46 | 1033.8 |
| 20260906143724 | 76 | 135 | 4.0 | 6.0 | 0.00 | 0.00 | 0.00 | 45 | 1033.9 |
| 20260906142725 | 77 | 123 | 2.0 | 4.0 | 0.00 | 0.00 | 0.00 | 44 | 1034.1 |
| 20260906135722 | 76 | 135 | 6.0 | 11.0 | 0.00 | 0.00 | 0.00 | 45 | 1034.3 |
| 20260906134723 | 76 | 131 | 5.0 | 7.0 | 0.00 | 0.00 | 0.00 | 46 | 1034.2 |
| 20260906132722 | 76 | 135 | 6.0 | 10.0 | 0.00 | 0.00 | 0.00 | 48 | 1034.5 |
| 20260906131722 | 76 | 135 | 5.0 | 6.0 | 0.00 | 0.00 | 0.00 | 47 | 1034.6 |
| 20260906131640 | 75 | 126 | 4.0 | 7.0 | 0.00 | 0.00 | 0.00 | 47 | 1034.6 |
| 20260906130723 | 75 | 135 | 3.0 | 5.0 | 0.00 | 0.00 | 0.00 | 47 | 1034.7 |
| 20260906125623 | 75 | 135 | 6.0 | 7.0 | 0.00 | 0.00 | 0.00 | 48 | 1034.9 |
| 20260906123640 | 75 | 134 | 5.0 | 7.0 | 0.00 | 0.00 | 0.00 | 50 | 1035.2 |
| 20260906122722 | 74 | 122 | 1.0 | 3.0 | 0.00 | 0.00 | 0.00 | 51 | 1035.4 |
| 20260906121722 | 73 | 135 | 8.0 | 12.0 | 0.00 | 0.00 | 0.00 | 50 | 1035.5 |
| 20260906120723 | 73 | 132 | 3.0 | 5.0 | 0.00 | 0.00 | 0.00 | 51 | 1035.7 |
| 20260906115723 | 73 | 134 | 4.0 | 7.0 | 0.00 | 0.00 | 0.00 | 54 | 1035.7 |
| 20260906114725 | 72 | 135 | 7.0 | 10.0 | 0.00 | 0.00 | 0.00 | 54 | 1035.9 |
| 20260906113725 | 70 | 133 | 4.0 | 9.0 | 0.00 | 0.00 | 0.00 | 57 | 1036.1 |
| 20260906111821 | 68 | 135 | 7.0 | 10.0 | 0.00 | 0.00 | 0.00 | 61 | 1036.4 |
| 20260906110823 | 67 | 132 | 3.0 | 5.0 | 0.00 | 0.00 | 0.00 | 62 | 1036.3 |
| 20260906105821 | 67 | 135 | 5.0 | 7.0 | 0.00 | 0.00 | 0.00 | 63 | 1036.6 |
| 20260906104826 | 67 | 133 | 6.0 | 8.0 | 0.00 | 0.00 | 0.00 | 65 | 1036.7 |
| 20260906102822 | 65 | 135 | 3.0 | 5.0 | 0.00 | 0.00 | 0.00 | 68 | 1036.7 |
| 20260906101825 | 65 | 128 | 4.0 | 8.0 | 0.00 | 0.00 | 0.00 | 68 | 1036.8 |
| 20260906100823 | 64 | 135 | 4.0 | 7.0 | 0.00 | 0.00 | 0.00 | 69 | 1037.0 |
| 20260906094823 | 64 | 112 | 1.0 | 2.0 | 0.00 | 0.00 | 0.00 | 73 | 1037.1 |
| 20260906093722 | 63 | 135 | 4.0 | 6.0 | 0.00 | 0.00 | 0.00 | 73 | 1037.2 |
| 20260906092822 | 63 | 135 | 5.0 | 7.0 | 0.00 | 0.00 | 0.00 | 74 | 1037.3 |
| 20260906091822 | 63 | 135 | 2.0 | 7.0 | 0.00 | 0.00 | 0.00 | 75 | 1037.3 |
| 20260906090824 | 63 | 135 | 4.0 | 6.0 | 0.00 | 0.00 | 0.00 | 78 | 1037.5 |
| 20260906085824 | 63 | 135 | 5.0 | 7.0 | 0.00 | 0.00 | 0.00 | 80 | 1037.7 |
| 20260906084823 | 62 | 134 | 5.0 | 7.0 | 0.00 | 0.00 | 0.00 | 83 | 1037.9 |
| 20260906084722 | 62 | 135 | 5.0 | 7.0 | 0.00 | 0.00 | 0.00 | 83 | 1037.9 |
| 20260906083724 | 61 | 135 | 3.0 | 5.0 | 0.00 | 0.00 | 0.00 | 85 | 1037.9 |
| 20260906081822 | 60 | 135 | 4.0 | 7.0 | 0.00 | 0.00 | 0.00 | 93 | 1037.8 |
| 20260906075823 | 57 | 135 | 4.0 | 6.0 | 0.00 | 0.00 | 0.00 | 96 | 1037.9 |
| 20260906074821 | 56 | 135 | 2.0 | 4.0 | 0.00 | 0.00 | 0.00 | 97 | 1037.7 |
| 20260906073822 | 56 | 135 | 3.0 | 4.0 | 0.00 | 0.00 | 0.00 | 97 | 1037.6 |
| 20260906073723 | 56 | 135 | 2.0 | 4.0 | 0.00 | 0.00 | 0.00 | 97 | 1037.6 |
| 20260906072721 | 55 | 135 | 2.0 | 4.0 | 0.00 | 0.00 | 0.00 | 97 | 1037.6 |
| 20260906071724 | 54 | 135 | 2.0 | 3.0 | 0.00 | 0.00 | 0.00 | 98 | 1037.6 |
| 20260906070723 | 53 | 135 | 4.0 | 5.0 | 0.00 | 0.00 | 0.00 | 98 | 1037.6 |
| 20260906070621 | 53 | 135 | 3.0 | 4.0 | 0.00 | 0.00 | 0.00 | 98 | 1037.6 |
| 20260906065623 | 52 | 135 | 2.0 | 2.0 | 0.00 | 0.00 | 0.00 | 98 | 1037.3 |
| 20260906064722 | 51 | 135 | 1.0 | 2.0 | 0.00 | 0.00 | 0.00 | 97 | 1037.5 |
| 20260906063621 | 50 | 135 | 2.0 | 3.0 | 0.00 | 0.00 | 0.00 | 97 | 1037.3 |
| 20260906062622 | 50 | 135 | 1.0 | 2.0 | 0.00 | 0.00 | 0.00 | 97 | 1037.5 |
| 20260906061623 | 49 | 135 | 2.0 | 3.0 | 0.00 | 0.00 | 0.00 | 97 | 1037.3 |
| 20260906061523 | 49 | 135 | 0.0 | 1.0 | 0.00 | 0.00 | 0.00 | 97 | 1037.3 |
| 20260906060525 | 49 | 135 | 1.0 | 2.0 | 0.00 | 0.00 | 0.00 | 97 | 1037.1 |
| 20260906054522 | 48 | 135 | 0.0 | 1.0 | 0.00 | 0.00 | 0.00 | 97 | 1037.4 |
| 20260906053524 | 48 | 135 | 1.0 | 2.0 | 0.00 | 0.00 | 0.00 | 97 | 1037.2 |
| 20260906053424 | 48 | 135 | 0.0 | 1.0 | 0.00 | 0.00 | 0.00 | 97 | 1037.2 |
| 20260906051524 | 48 | 135 | 1.0 | 2.0 | 0.00 | 0.00 | 0.00 | 97 | 1037.2 |
| 20260906050622 | 48 | 135 | 1.0 | 2.0 | 0.00 | 0.00 | 0.00 | 97 | 1037.2 |
| 20260906045624 | 48 | 135 | 1.0 | 2.0 | 0.00 | 0.00 | 0.00 | 97 | 1037.3 |
| 20260906043623 | 48 | 135 | 0.0 | 1.0 | 0.00 | 0.00 | 0.00 | 97 | 1037.2 |
| 20260906043521 | 49 | 135 | 0.0 | 0.0 | 0.00 | 0.00 | 0.00 | 97 | 1037.2 |
| 20260906041621 | 49 | 135 | 0.0 | 0.0 | 0.00 | 0.00 | 0.00 | 97 | 1037.2 |
| 20260906041521 | 49 | 135 | 0.0 | 0.0 | 0.00 | 0.00 | 0.00 | 97 | 1037.2 |
| 20260906040523 | 49 | 135 | 0.0 | 0.0 | 0.00 | 0.00 | 0.00 | 97 | 1037.2 |
| 20260906035522 | 49 | 135 | 0.0 | 0.0 | 0.00 | 0.00 | 0.00 | 97 | 1037.0 |
| 20260906034524 | 49 | 135 | 0.0 | 0.0 | 0.00 | 0.00 | 0.00 | 96 | 1037.1 |
| 20260906033523 | 49 | 135 | 0.0 | 1.0 | 0.00 | 0.00 | 0.00 | 96 | 1037.3 |
| 20260906032622 | 49 | 135 | 0.0 | 0.0 | 0.00 | 0.00 | 0.00 | 96 | 1037.4 |
| 20260906031621 | 49 | 135 | 0.0 | 0.0 | 0.00 | 0.00 | 0.00 | 96 | 1037.4 |
| 20260906030622 | 49 | 135 | 0.0 | 0.0 | 0.00 | 0.00 | 0.00 | 96 | 1037.7 |
| 20260906025623 | 49 | 135 | 0.0 | 0.0 | 0.00 | 0.00 | 0.00 | 96 | 1037.7 |
| 20260906024623 | 49 | 135 | 0.0 | 0.0 | 0.00 | 0.00 | 0.00 | 96 | 1037.8 |
| 20260906023621 | 49 | 135 | 0.0 | 0.0 | 0.00 | 0.00 | 0.00 | 96 | 1037.6 |
| 20260906023523 | 49 | 135 | 0.0 | 0.0 | 0.00 | 0.00 | 0.00 | 96 | 1037.7 |
| 20260906023422 | 49 | 135 | 0.0 | 0.0 | 0.00 | 0.00 | 0.00 | 96 | 1037.7 |
| 20260906022423 | 49 | 135 | 0.0 | 0.0 | 0.00 | 0.00 | 0.00 | 96 | 1037.5 |
| 20260906021322 | 50 | 135 | 0.0 | 1.0 | 0.00 | 0.00 | 0.00 | 95 | 1037.5 |
| 20260906021223 | 50 | 135 | 0.0 | 1.0 | 0.00 | 0.00 | 0.00 | 95 | 1037.5 |
| 20260906020222 | 50 | 135 | 0.0 | 0.0 | 0.00 | 0.00 | 0.00 | 95 | 1037.7 |
| 20260906015222 | 50 | 135 | 0.0 | 0.0 | 0.00 | 0.00 | 0.00 | 95 | 1037.5 |
| 20260906013224 | 50 | 135 | 0.0 | 0.0 | 0.00 | 0.00 | 0.00 | 95 | 1037.3 |
| 20260906005222 | 51 | 135 | 0.0 | 0.0 | 0.00 | 0.00 | 0.00 | 94 | 1037.4 |
| 20260906005121 | 51 | 135 | 0.0 | 0.0 | 0.00 | 0.00 | 0.00 | 94 | 1037.4 |
| 20260906004137 | 51 | 135 | 0.0 | 0.0 | 0.00 | 0.00 | 0.00 | 94 | 1037.3 |
| 20260906003121 | 51 | 135 | 0.0 | 0.0 | 0.00 | 0.00 | 0.00 | 94 | 1037.3 |
| 20260906002024 | 51 | 135 | 0.0 | 0.0 | 0.00 | 0.00 | 0.00 | 93 | 1037.2 |
| 20260906001022 | 51 | 135 | 0.0 | 0.0 | 0.00 | 0.00 | 0.00 | 93 | 1037.2 |
| 20260906000923 | 51 | 135 | 0.0 | 0.0 | 0.00 | 0.00 | 0.00 | 93 | 1037.2 |
| 20260905235923 | 52 | 135 | 0.0 | 0.0 | 0.00 | 0.00 | 0.00 | 93 | 1037.3 |
| 20260905235023 | 52 | 135 | 0.0 | 0.0 | 0.00 | 0.00 | 0.00 | 93 | 1037.4 |
| 20260905234921 | 52 | 135 | 0.0 | 0.0 | 0.00 | 0.00 | 0.00 | 93 | 1037.5 |
| 20260905233921 | 52 | 112 | 0.0 | 2.0 | 0.00 | 0.00 | 0.00 | 92 | 1037.4 |
| 20260905232820 | 52 | 112 | 0.0 | 0.0 | 0.00 | 0.00 | 0.00 | 92 | 1037.4 |
| 20260905231823 | 52 | 112 | 0.0 | 0.0 | 0.00 | 0.00 | 0.00 | 92 | 1037.4 |
| 20260905225823 | 52 | 180 | 0.0 | 0.0 | 0.00 | 0.00 | 0.00 | 92 | 1037.1 |
| 20260905223923 | 53 | 180 | 0.0 | 0.0 | 0.00 | 0.00 | 0.00 | 91 | 1037.0 |
| 20260905222923 | 53 | 180 | 0.0 | 0.0 | 0.00 | 0.00 | 0.00 | 91 | 1036.9 |
| 20260905221924 | 53 | 180 | 0.0 | 0.0 | 0.00 | 0.00 | 0.00 | 90 | 1036.8 |
| 20260905221021 | 54 | 180 | 0.0 | 0.0 | 0.00 | 0.00 | 0.00 | 89 | 1036.9 |
| 20260905215024 | 54 | 180 | 0.0 | 0.0 | 0.00 | 0.00 | 0.00 | 89 | 1036.8 |
| 20260905214922 | 54 | 180 | 0.0 | 0.0 | 0.00 | 0.00 | 0.00 | 89 | 1036.8 |
| 20260905214824 | 54 | 180 | 0.0 | 0.0 | 0.00 | 0.00 | 0.00 | 89 | 1036.8 |
| 20260905213822 | 55 | 180 | 1.0 | 2.0 | 0.00 | 0.00 | 0.00 | 88 | 1036.9 |
| 20260905212825 | 55 | 180 | 0.0 | 1.0 | 0.00 | 0.00 | 0.00 | 88 | 1036.8 |
| 20260905211823 | 55 | 180 | 1.0 | 2.0 | 0.00 | 0.00 | 0.00 | 87 | 1036.8 |
| 20260905210921 | 55 | 180 | 1.0 | 2.0 | 0.00 | 0.00 | 0.00 | 87 | 1036.7 |
| 20260905205922 | 55 | 180 | 1.0 | 2.0 | 0.00 | 0.00 | 0.00 | 86 | 1036.7 |
| 20260905204923 | 56 | 180 | 1.0 | 2.0 | 0.00 | 0.00 | 0.00 | 86 | 1036.7 |
| 20260905203925 | 56 | 180 | 1.0 | 2.0 | 0.00 | 0.00 | 0.00 | 85 | 1036.6 |
| 20260905202923 | 56 | 180 | 0.0 | 0.0 | 0.00 | 0.00 | 0.00 | 84 | 1036.5 |
| 20260905202839 | 56 | 180 | 0.0 | 0.0 | 0.00 | 0.00 | 0.00 | 84 | 1036.6 |
| 20260905201922 | 57 | 116 | 2.0 | 3.0 | 0.00 | 0.00 | 0.00 | 83 | 1036.6 |
| 20260905200923 | 57 | 112 | 0.0 | 1.0 | 0.00 | 0.00 | 0.00 | 83 | 1036.4 |
| 20260905200822 | 57 | 112 | 1.0 | 1.0 | 0.00 | 0.00 | 0.00 | 83 | 1036.5 |
| 20260905195822 | 58 | 180 | 0.0 | 0.0 | 0.00 | 0.00 | 0.00 | 82 | 1036.3 |
| 20260905194823 | 58 | 180 | 0.0 | 1.0 | 0.00 | 0.00 | 0.00 | 81 | 1036.4 |
| 20260905190922 | 60 | 180 | 0.0 | 1.0 | 0.00 | 0.00 | 0.00 | 76 | 1036.1 |
| 20260905185923 | 60 | 180 | 2.0 | 3.0 | 0.00 | 0.00 | 0.00 | 76 | 1036.0 |
| 20260905184921 | 60 | 180 | 2.0 | 4.0 | 0.00 | 0.00 | 0.00 | 75 | 1035.9 |
| 20260905182922 | 62 | 180 | 3.0 | 4.0 | 0.00 | 0.00 | 0.00 | 72 | 1035.7 |
| 20260905181921 | 62 | 180 | 4.0 | 7.0 | 0.00 | 0.00 | 0.00 | 72 | 1035.6 |
| 20260905175823 | 63 | 180 | 0.0 | 1.0 | 0.00 | 0.00 | 0.00 | 68 | 1035.5 |
| 20260905174822 | 64 | 180 | 3.0 | 5.0 | 0.00 | 0.00 | 0.00 | 66 | 1035.4 |
| 20260905172839 | 66 | 178 | 4.0 | 9.0 | 0.00 | 0.00 | 0.00 | 63 | 1035.2 |